sat.trackr.live / text

‹ back to catalog

SITRO-AIS-61

NORAD 67297 · 2025-313BB

PAYLOAD ACTIVE UNKNOWN

§ Identity

Operator
Country
CIS
Launch date
2025-12-28
Launch site
VOSTO
Launch vehicle
Mass (kg)
RCS (m²)

External: N2YO · Heavens-Above · Gunter

§ Orbital elements

Epoch: 2026-09-20T14:17:57.449184Z

Period
94.31 min
Inclination
97.3867°
Eccentricity
0.0008510
Mean motion
15.26835154 rev/d
Perigee alt
479.4 km
Apogee alt
491.1 km
Semi-major
6,863.4 km
B*
2.5324e-4
RAAN
337.6791°
Arg perigee
31.8045°
Mean anomaly
328.3707°
Rev number
4,053

§ Raw data

SITRO-AIS-611 67297U 25313BB  26263.59580381  .00006611  00000+0  25324-3 0  99952 67297  97.3867 337.6791 0008510  31.8045 328.3707 15.26835154 40536

JSON: /api/v1/satellites/67297 · /tle

For live sub-satellite position, see the globe view (requires WebGL).

§ Visibility from observer

Set your observer location to see the next 7 days of passes ≥ 10°. The values pass through the URL so the page stays shareable.

No JS? Fill the form by hand. The geolocation button needs JavaScript.